Погода в Кумкёе

Турция     36°52′48″N   30°57′10″E
темп.,
°C
ветер,
м/с
пор.,
м/с
влажн.,
%
обл.,
%
осадки,
мм/ч
давл.,
гПа
погр.,
м
30 июня, чт
чт3000:00+23с22575 0.0 100716
03:00+23с22515 0.0 100618
06:00+22с33504 0.0 100637
09:00+31ссз33280 0.0 1006987
12:00+36ю53221 0.0 10053024
15:00+34ю65280 0.0 10051408
18:00+31юв443585 0.0 1006841
21:00+25в22573 0.0 100624
1 июля, пт
пт100:00+24ссз22520 0.0 100618
03:00+24с22483 0.0 100618
06:00+23с22470 0.0 100530
09:00+33ссз44260 0.0 10051112
12:00+37зсз23180 0.0 10043442
15:00+36ююв752439 0.0 10041755
18:00+31вюв3341100 0.0 1005377
21:00+27с11521 0.0 100614
2 июля, сб
сб200:00+26с33410 0.0 100736
03:00+25с34460 0.0 100751
06:00+25с34510 0.0 100768
09:00+32с46220 0.0 10071348
12:00+37ссв56150 0.0 10072264
15:00+39ссв66140 0.0 10053106
18:00+38св76110 0.0 10052638
21:00+29св44200 0.0 100646
3 июля, вс
вс300:00+26с44280 0.0 100748
03:00+24с45370 0.0 100760
06:00+22с46430 0.0 100784
09:00+32с56170 0.0 1006996
12:00+37ссв4480 0.0 10061807
15:00+39ссв4360 0.0 10042586
18:00+37всв3590 0.0 10041325
21:00+27св32240 0.0 100619
4 июля, пн
пн400:00+24с44220 0.0 100743
03:00+23с44300 0.0 100654
06:00+21с45380 0.0 100669
09:00+32с45170 0.0 1006811
12:00+38с2380 0.0 10052068
15:00+39ю4490 0.0 10032326
18:00+33юв44210 0.0 1004601
21:00+25всв22390 0.0 100516